Change the Weather History Date:

Saturday, February 22, 2014

  Actual Average Record
Temperature  
Mean Temperature 60 °F -  
Max Temperature 73 °F 62 °F 91 °F (2002)
Min Temperature 48 °F 44 °F 37 °F (1999)
Degree Days  
Heating Degree Days 4    
Growing Degree Days 10 (Base 50)    
Moisture  
Dew Point 33 °F    
Average Humidity 43    
Maximum Humidity 80    
Minimum Humidity 15    
Precipitation  
Precipitation 0.00 in - - ()
Sea Level Pressure  
Sea Level Pressure 29.89 in    
Wind  
Wind Speed 6 mph (SE)    
Max Wind Speed 9 mph    
Max Gust Speed -    
Visibility 10 miles    
Events      
Averages and records for this station are not official NWS values.
T = Trace of Precipitation, MM = Missing Value Source: NWS Daily Summary

Daily Weather History Graph

Daily Weather History Graph

Search for Another Location

Airport or City:

Trip Planner

Search our weather history database for the weather conditions in past years. The results will help you decide how hot, cold, wet, or windy it might be!

Date:

Astronomy

Feb. 22, 2014 Rise Set
Actual Time 6:24 AM PST 5:40 PM PST
Civil Twilight 5:59 AM PST 6:05 PM PST
Nautical Twilight 5:30 AM PST 6:33 PM PST
Astronomical Twilight 5:02 AM PST 7:02 PM PST
Moon 12:16 AM PST (2/22) 11:03 AM PST (2/22)
Length of Visible Light 12h 05m
Length of Day
11h 15m
Waning Gibbous, 49% of the Moon is Illuminated
Feb 22
Waning Gibbous
Mar 1
New
Mar 8
First Quarter
Mar 16
Full
Mar 23
Last Quarter

Hourly Weather History & Observations

Time (PST) Temp. Dew Point Humidity Pressure Visibility Wind Dir Wind Speed Gust Speed Precip Events Conditions
12:55 AM 50.0 °F 44.1 °F 80% 29.91 in 10.0 mi ENE 6.9 mph - N/A   Partly Cloudy
1:55 AM 50.0 °F 41.0 °F 71% 29.89 in 10.0 mi East 8.1 mph - N/A   Partly Cloudy
2:55 AM 51.1 °F 37.9 °F 61% 29.88 in 10.0 mi East 8.1 mph - N/A   Partly Cloudy
3:55 AM 50.0 °F 36.0 °F 59% 29.88 in 10.0 mi East 8.1 mph - N/A   Partly Cloudy
4:55 AM 50.0 °F 33.1 °F 52% 29.88 in 10.0 mi ENE 9.2 mph - N/A   Partly Cloudy
5:55 AM 50.0 °F 32.0 °F 50% 29.89 in 10.0 mi ENE 8.1 mph - N/A   Partly Cloudy
6:55 AM 52.0 °F 30.9 °F 45% 29.90 in 10.0 mi ENE 6.9 mph - N/A   Mostly Cloudy
7:55 AM 60.1 °F 28.9 °F 31% 29.91 in 10.0 mi East 3.5 mph - N/A   Mostly Cloudy
8:55 AM 64.9 °F 30.0 °F 27% 29.92 in 10.0 mi SSE 3.5 mph - N/A   Mostly Cloudy
9:55 AM 69.1 °F 24.1 °F 18% 29.93 in 10.0 mi Calm Calm - N/A   Mostly Cloudy
10:55 AM 72.0 °F 21.0 °F 15% 29.92 in 10.0 mi South 3.5 mph - N/A   Mostly Cloudy
11:55 AM 73.0 °F 25.0 °F 17% 29.90 in 10.0 mi SSW 5.8 mph - N/A   Mostly Cloudy
12:55 PM 72.0 °F 33.1 °F 24% 29.88 in 10.0 mi WSW 8.1 mph - N/A   Mostly Cloudy
1:55 PM 71.1 °F 35.1 °F 27% 29.86 in 10.0 mi WSW 3.5 mph - N/A   Mostly Cloudy
2:55 PM 72.0 °F 34.0 °F 25% 29.85 in 10.0 mi West 4.6 mph - N/A   Mostly Cloudy
3:55 PM 69.1 °F 34.0 °F 27% 29.85 in 10.0 mi WSW 5.8 mph - N/A   Mostly Cloudy
4:55 PM 66.0 °F 28.9 °F 25% 29.86 in 10.0 mi West 5.8 mph - N/A   Mostly Cloudy
5:55 PM 60.1 °F 33.1 °F 36% 29.88 in 10.0 mi West 6.9 mph - N/A   Mostly Cloudy
6:55 PM 55.9 °F 35.1 °F 45% 29.88 in 10.0 mi WSW 3.5 mph - N/A   Mostly Cloudy
7:55 PM 54.0 °F 37.9 °F 55% 29.90 in 10.0 mi Calm Calm - N/A   Mostly Cloudy
8:55 PM 50.0 °F 35.1 °F 57% 29.91 in 10.0 mi SE 3.5 mph - N/A   Partly Cloudy
9:55 PM 48.0 °F 36.0 °F 63% 29.92 in 10.0 mi East 3.5 mph - N/A   Clear
10:55 PM 48.0 °F 35.1 °F 61% 29.92 in 10.0 mi East 5.8 mph - N/A   Clear
11:55 PM 48.0 °F 35.1 °F 61% 29.92 in 10.0 mi East 3.5 mph - N/A   Clear